CAPE
8 86 133 78 38 185 267 126 85 241 173 350 340 427 485 339 451 465 608 668 912 1142 798 431 289 107 75 17 246 241 61 230 424 119 113 47 37 17 24 0 0 57 87
18 35 116 176 182 235 350 175 71 548 350 516 494 527 448 263 333 400 491 677 939 1123 977 270 104 0 0 13 128 123 0 0 183 73 188 154 114 29 4 8 35 34 20
19 44 85 208 247 272 326 284 282 706 486 650 437 493 403 375 218 323 443 877 908 781 1100 525 175 0 0 164 214 0 53 7 0 26 52 0 24 15 0 0 0 0 0
1 5 65 194 297 302 313 299 429 579 467 705 444 397 432 406 170 438 471 761 818 877 1062 618 233 29 37 483 270 0 208 67 0 0 0 2 0 1 55 0 0 35 2
0 25 104 161 278 291 279 215 280 331 368 581 648 447 414 385 337 302 445 395 663 964 1039 695 391 114 11 164 554 230 211 258 116 0 0 0 0 0 73 70 0 75 52
6 15 86 149 226 267 244 249 308 321 288 371 563 613 366 279 336 243 355 588 501 590 846 866 483 266 2 477 664 726 476 571 285 17 53 157 139 212 247 139 44 91 122
1 25 56 114 152 207 291 291 317 369 327 353 431 523 502 429 353 309 188 373 344 601 680 837 893 533 464 765 1061 975 986 1039 878 739 521 465 277 423 257 76 119 88 36
72 56 74 56 119 135 246 298 273 354 370 430 515 527 485 410 281 441 429 319 392 384 406 567 712 650 838 920 916 1139 1012 959 882 787 800 680 778 662 363 202 173 72 17
160 96 59 67 103 137 131 305 261 321 316 452 442 518 542 407 341 390 406 400 430 520 507 473 485 625 695 945 952 837 865 944 898 781 640 829 863 531 466 268 78 165 54
295 128 80 63 91 95 106 155 277 264 251 351 446 435 439 601 511 480 374 405 452 406 489 625 575 565 667 948 931 845 891 993 782 835 604 633 626 553 444 296 171 133 113
389 348 167 106 89 114 123 158 289 287 206 242 352 408 406 410 583 513 404 303 344 582 781 621 561 700 610 808 951 912 901 847 783 767 660 605 476 433 462 383 309 175 107
389 325 226 232 156 95 88 122 224 288 226 64 197 267 315 345 347 503 468 346 472 564 592 665 561 659 706 664 845 873 1056 1081 1004 868 722 550 476 526 385 222 161 181 163
474 526 363 305 275 248 165 141 247 320 304 308 282 275 308 292 244 310 454 440 562 720 729 717 713 689 603 619 711 863 924 934 900 781 741 618 545 471 457 370 300 137 208
179 171 330 208 177 291 318 275 377 522 449 403 192 282 365 348 247 201 255 443 602 670 585 544 604 567 561 755 803 900 696 765 825 843 749 690 570 524 407 208 208 161 155
300 332 270 193 198 201 266 489 488 567 598 382 214 264 225 362 363 296 328 329 503 464 424 485 485 486 667 669 694 631 715 702 663 694 522 430 466 442 385 388 277 221 220
258 245 266 246 256 297 296 197 242 298 379 301 325 245 160 228 277 291 305 335 366 433 393 355 451 497 487 280 278 470 469 485 486 490 342 311 177 132 74 62 15 21 75
170 67 47 32 8 82 164 192 228 210 193 348 332 130 60 57 134 220 263 250 237 253 322 350 357 385 129 100 196 202 200 244 269 190 161 136 4 17 12 0 0 0 0
35 18 0 0 0 0 12 27 32 60 92 160 151 106 53 28 25 7 18 192 164 197 306 235 120 44 0 0 0 0 0 50 16 2 8 0 0 0 0 0 7 0 0
0 0 0 0 0 0 0 2 3 5 14 24 26 56 80 32 7 18 0 17 156 113 64 15 0 0 0 0 0 0 0 5 0 0 0 0 0 0 0 0 0 0 0
7 0 0 0 0 0 0 0 0 0 1 10 2 0 0 0 0 18 5 18 92 13 0 0 0 0 1 0 0 0 0 0 0 0 0 0 0 0 0 0 0 0 0
0 0 0 0 0 0 1 0 0 0 3 1 1 1 1 3 0 1 0 0 0 0 0 0 3 3 1 0 0 0 0 0 0 0 0 0 0 0 0 0 0 0 0
0 0 0 0 0 2 1 1 0 1 0 3 2 2 1 0 1 1 2 3 1 1 4 4 5 5 4 1 0 0 0 0 0 0 0 0 0 0 0 0 0 0 0
0 0 0 0 1 1 0 8 0 0 0 2 0 3 4 3 2 3 4 4 5 3 4 4 2 2 2 3 0 0 0 0 0 0 0 0 0 0 0 0 0 0 0
0 0 0 1 0 0 3 0 0 0 0 0 0 0 0 0 2 3 4 4 3 2 1 0 1 2 2 0 0 0 0 0 0 0 0 0 0 0 0 0 0 0 0
0 0 0 1 1 1 0 0 0 0 0 1 0 0 0 0 0 0 0 0 0 0 0 0 0 0 0 0 0 0 0 0 0 0 0 0 0 0 0 0 0 0 0
0 0 0 0 1 1 1 1 6 5 1 0 0 0 0 0 0 0 0 0 0 0 0 0 0 0 0 0 0 0 0 0 0 0 0 0 0 0 0 0 0 0 0
CIN
-109 -122 -133 -135 -158 -138 -136 -180 -194 -125 -144 -100 -82 -85 -75 -88 -74 -62 -38 -31 -29 -33 -42 -65 -90 -141 -140 -184 -148 -129 -165 -126 -137 -142 -188 -260 -296 -291 -327 -1 -1 -278 -305
-103 -149 -137 -152 -133 -122 -131 -175 -207 -122 -124 -74 -66 -70 -84 -97 -60 -65 -45 -40 -25 -31 -41 -85 -138 -0 -0 -60 -178 -182 -0 -0 -212 -136 -124 -103 -158 -263 -241 -262 -312 -350 -393
-118 -158 -166 -154 -137 -144 -128 -147 -155 -108 -132 -107 -98 -73 -89 -86 -72 -58 -43 -40 -29 -41 -35 -56 -106 -0 -0 -111 -145 -0 -95 -138 -0 -240 -161 -0 -137 -94 -0 -0 -0 -0 -0
-28 -135 -154 -156 -154 -151 -156 -126 -123 -106 -121 -95 -104 -62 -46 -44 -82 -54 -50 -30 -34 -28 -37 -56 -79 -136 -178 -81 -115 -0 -163 -136 -0 -0 -0 -22 -11 -28 -70 -0 -0 -253 -124
-0 -157 -145 -141 -171 -166 -154 -141 -108 -102 -109 -101 -86 -87 -56 -55 -47 -55 -39 -45 -31 -28 -29 -51 -74 -124 -161 -102 -79 -122 -135 -138 -148 -0 -0 -7 -0 -0 -137 -63 -0 -125 -85
-122 -188 -121 -121 -143 -172 -177 -138 -120 -110 -109 -120 -89 -83 -66 -56 -44 -38 -39 -31 -32 -29 -32 -37 -60 -79 -9 -54 -57 -84 -106 -85 -121 -72 -189 -127 -105 -100 -98 -93 -106 -88 -56
-18 -151 -113 -104 -163 -182 -171 -155 -131 -118 -118 -120 -99 -94 -84 -70 -57 -38 -51 -39 -42 -28 -35 -36 -40 -47 -56 -45 -48 -50 -54 -55 -64 -69 -76 -92 -91 -94 -96 -108 -71 -76 -49
-177 -147 -150 -147 -156 -194 -180 -162 -152 -130 -140 -133 -116 -101 -90 -92 -89 -58 -43 -41 -33 -44 -41 -34 -33 -27 -30 -32 -51 -44 -39 -36 -42 -44 -46 -51 -48 -56 -69 -63 -39 -49 -56
-189 -152 -177 -164 -168 -182 -174 -167 -168 -144 -175 -149 -129 -103 -83 -104 -113 -92 -85 -54 -51 -42 -39 -39 -36 -24 -23 -23 -29 -30 -27 -28 -33 -30 -42 -34 -31 -51 -53 -62 -79 -38 -34
-177 -172 -154 -160 -180 -180 -102 -149 -148 -141 -162 -174 -158 -137 -119 -96 -101 -87 -97 -76 -56 -50 -41 -38 -36 -42 -28 -26 -23 -25 -28 -21 -28 -23 -37 -33 -39 -39 -49 -43 -58 -57 -30
-151 -137 -157 -195 -169 -172 -141 -164 -181 -150 -120 -156 -170 -150 -147 -124 -87 -92 -109 -112 -94 -52 -42 -41 -41 -31 -31 -29 -23 -27 -23 -19 -17 -20 -26 -29 -45 -44 -43 -50 -49 -46 -44
-244 -221 -205 -176 -186 -190 -167 -186 -166 -140 -132 -256 -128 -175 -169 -139 -118 -92 -91 -109 -79 -59 -55 -38 -34 -37 -30 -26 -27 -21 -17 -16 -15 -19 -23 -39 -39 -35 -42 -55 -48 -39 -38
-184 -171 -164 -160 -155 -185 -191 -142 -131 -125 -133 -100 -126 -137 -151 -157 -152 -121 -82 -79 -73 -51 -46 -37 -29 -27 -32 -29 -35 -28 -19 -20 -25 -22 -24 -32 -36 -34 -33 -37 -41 -54 -39
-180 -182 -176 -186 -195 -171 -145 -116 -110 -118 -60 -48 -77 -69 -97 -128 -131 -138 -97 -50 -55 -60 -64 -50 -30 -32 -37 -34 -29 -26 -35 -29 -23 -23 -32 -29 -36 -35 -43 -68 -63 -63 -53
-161 -168 -150 -162 -173 -167 -167 -134 -114 -122 -91 -122 -109 -120 -70 -87 -99 -95 -79 -66 -44 -55 -58 -51 -57 -44 -37 -42 -42 -40 -36 -29 -25 -25 -39 -44 -34 -47 -53 -43 -47 -55 -48
-173 -202 -213 -225 -215 -186 -166 -167 -121 -106 -121 -132 -91 -69 -145 -55 -97 -93 -70 -39 -37 -45 -43 -39 -33 -32 -46 -106 -86 -53 -42 -42 -33 -23 -36 -40 -64 -81 -100 -115 -153 -139 -61
-238 -300 -283 -289 -233 -290 -240 -195 -164 -128 -96 -35 -44 -95 -106 -68 -111 -105 -88 -74 -40 -48 -38 -37 -36 -35 -130 -190 -114 -91 -81 -61 -44 -49 -57 -68 -28 -113 -163 -0 -0 -0 -0
-309 -370 -63 -0 -0 -0 -292 -298 -228 -143 -83 -29 -17 -47 -66 -50 -116 -150 -42 -77 -66 -31 -31 -45 -79 -133 -0 -0 -0 -0 -0 -111 -93 -80 -70 -0 -0 -0 -0 -47 -119 -0 -0
-0 -0 -0 -0 -0 -0 -0 -315 -192 -40 -161 -99 -68 -18 -23 -84 -75 -140 -1 -149 -77 -55 -59 -123 -0 -0 -0 -0 -0 -0 -18 -189 -0 -0 -0 -0 -0 -0 -0 -0 -0 -0 -0
-290 -0 -0 -0 -0 -0 -0 -0 -0 -0 -0 -17 -13 -0 -0 -0 -0 -161 -130 -180 -117 -26 -0 -0 -0 -0 -0 -0 -0 -0 -0 -0 -0 -0 -0 -0 -0 -0 -0 -0 -0 -0 -0
-0 -0 -0 -0 -0 -0 -0 -0 -0 -0 -0 -0 -32 -0 -0 -2 -9 -65 -0 -32 -0 -0 -0 -0 -0 -0 -0 -0 -0 -0 -0 -0 -0 -0 -0 -0 -0 -0 -0 -0 -0 -0 -0
-0 -0 -0 -0 -0 -0 -107 -24 -0 -0 -0 -0 -0 -0 -0 -0 -0 -0 -0 -0 -0 -0 -0 -0 -0 -0 -0 -0 -0 -0 -0 -0 -0 -0 -0 -0 -0 -0 -0 -0 -0 -0 -0
-0 -0 -0 -0 -0 -0 -1 -53 -0 -0 -0 -0 -0 -0 -0 -0 -0 -0 -0 -0 -0 -0 -0 -0 -0 -0 -0 -0 -0 -0 -0 -0 -0 -0 -0 -0 -0 -0 -0 -0 -0 -0 -0
-0 -0 -0 -0 -0 -0 -243 -0 -0 -0 -5 -0 -0 -0 -0 -0 -0 -0 -0 -0 -0 -0 -0 -0 -0 -0 -0 -0 -0 -0 -0 -0 -0 -0 -0 -0 -0 -0 -0 -0 -0 -0 -0
-0 -0 -0 -0 -0 -0 -0 -0 -79 -0 -0 -0 -0 -0 -0 -0 -0 -0 -0 -0 -0 -0 -0 -0 -0 -0 -0 -0 -0 -0 -0 -0 -0 -0 -0 -0 -0 -0 -0 -0 -0 -0 -0
-0 -0 -0 -0 -0 -0 -0 -0 -183 -170 -28 -0 -0 -0 -0 -0 -0 -0 -0 -0 -0 -0 -0 -0 -0 -0 -0 -0 -0 -0 -0 -0 -0 -0 -0 -0 -0 -0 -0 -0 -0 -0 -0
Wind_Speed
18 18 21 22 25 27 28 27 25 27 25 30 30 27 29 29 28 27 26 27 26 23 22 20 21 21 18 21 22 14 12 14 13 12 13 14 12 11 11 13 11 8 5
20 20 19 19 22 27 29 28 27 26 26 25 28 28 29 30 26 26 26 26 25 23 23 21 21 17 13 13 17 6 9 12 14 12 12 11 11 9 7 7 7 7 9
21 21 21 21 22 23 29 29 27 26 26 23 25 24 19 21 26 27 27 27 24 25 23 22 20 16 14 7 12 7 9 8 13 13 9 10 8 8 9 8 6 7 8
17 18 23 23 23 25 24 28 29 27 27 25 25 24 25 29 29 29 29 28 26 27 23 22 18 17 17 8 15 7 7 9 8 11 14 12 11 11 10 12 10 7 10
15 19 23 24 24 22 22 25 27 27 27 25 25 26 26 29 29 29 31 28 27 27 24 21 16 13 12 5 9 8 11 12 12 8 9 13 13 12 9 10 19 19 12
10 17 20 22 21 21 21 20 23 27 28 26 26 26 27 29 30 31 30 30 30 28 26 28 17 12 11 4 10 6 8 8 12 11 10 10 10 10 11 6 16 12 7
13 9 16 19 20 20 18 20 18 25 28 28 26 27 27 28 31 32 31 31 31 29 31 26 28 19 12 5 3 6 8 7 9 9 8 7 6 10 12 11 14 6 13
12 15 12 17 17 19 18 18 21 17 25 25 28 27 30 29 31 32 32 33 32 32 31 30 27 26 14 4 11 11 6 6 10 8 5 8 7 9 9 10 14 16 20
11 12 9 12 16 16 16 18 21 20 15 24 26 28 30 32 34 33 32 33 33 33 32 29 28 27 26 3 4 2 3 8 10 6 10 11 8 8 8 8 12 18 25
3 2 8 11 13 15 10 27 23 20 15 13 23 26 22 31 34 36 35 35 33 32 32 32 29 7 3 8 10 12 15 12 12 13 12 11 12 12 10 8 9 13 11
5 2 5 2 9 18 22 19 14 16 18 12 11 10 11 14 39 31 36 36 35 31 30 32 32 23 8 7 9 11 19 16 9 11 14 14 13 11 12 12 13 11 10
14 13 11 12 11 16 24 22 18 20 17 23 24 17 20 21 16 39 35 31 31 31 33 28 23 20 24 22 11 10 11 9 8 12 13 10 11 10 10 13 14 11 11
13 11 12 12 13 7 8 17 24 30 31 22 27 30 28 22 24 28 30 23 21 16 17 17 18 26 26 23 21 18 15 11 11 11 13 14 15 14 14 17 16 15 14
15 14 14 14 15 10 2 13 21 24 22 26 29 34 34 28 27 30 28 27 27 23 21 22 22 23 25 23 22 21 16 15 12 13 15 18 18 19 20 20 20 20 18
18 17 17 18 18 17 13 14 16 13 19 28 28 34 35 31 28 24 25 25 27 30 28 24 22 22 23 23 20 19 19 17 15 14 19 19 20 20 20 19 21 20 18
20 21 21 21 21 20 20 18 13 20 22 29 24 32 37 34 31 29 26 27 28 29 31 33 29 23 20 20 19 19 20 18 17 16 17 17 18 20 21 22 23 22 23
21 22 21 21 21 22 22 24 24 25 23 20 19 22 34 35 29 29 29 28 27 26 25 25 25 22 20 18 18 18 17 16 16 16 18 18 20 21 21 21 20 21 22
19 20 20 21 24 25 26 29 29 28 21 23 16 17 21 34 30 30 32 31 30 25 23 21 20 17 19 19 17 16 16 16 17 18 19 19 21 23 23 23 20 21 21
18 21 21 22 25 25 27 28 30 31 29 25 19 19 22 21 31 29 32 32 29 26 24 21 19 19 20 20 17 16 16 16 17 19 19 20 22 24 24 23 21 20 20
16 17 19 20 20 22 24 24 26 28 30 31 22 22 19 25 28 31 32 29 24 23 21 19 19 19 20 20 18 16 16 17 18 19 20 21 22 21 22 22 22 21 23
15 14 15 17 20 21 22 23 26 29 33 35 17 16 15 17 23 25 26 24 24 22 20 18 17 16 18 18 17 18 18 19 19 17 17 17 19 19 19 19 20 21 21
15 16 16 17 19 19 17 21 25 27 28 28 16 12 11 13 9 8 12 17 21 22 19 17 17 17 15 15 13 12 14 15 16 13 12 13 16 17 18 18 19 20 20
14 16 18 19 18 16 15 18 18 22 24 24 19 7 5 10 10 9 4 12 16 15 16 18 16 16 15 12 10 13 14 8 10 13 15 15 16 18 18 18 19 20 20
11 12 15 15 15 15 12 14 17 18 18 18 16 15 11 6 1 5 3 6 6 5 9 9 5 10 5 7 9 8 9 10 11 13 13 15 16 18 19 17 18 17 19
10 11 13 14 14 11 8 11 16 18 14 19 13 9 9 9 8 6 5 2 2 2 3 2 1 2 4 5 5 8 9 12 13 14 15 16 17 19 19 19 20 20 22
10 11 11 11 12 10 8 8 12 16 16 17 25 20 17 13 14 9 7 6 6 7 6 4 3 4 3 4 6 9 13 15 15 16 17 17 17 19 21 22 23 23 24
Wind_Direction
150 147 150 150 157 164 164 160 154 160 154 174 188 207 195 198 214 227 229 222 230 239 239 244 240 235 248 221 196 106 41 357 45 54 24 13 53 54 41 22 38 46 51
157 154 153 148 154 164 170 167 164 160 161 159 174 197 196 199 225 228 226 225 233 242 241 245 247 263 280 293 265 91 27 29 342 61 74 89 92 119 82 124 170 217 224
160 162 157 158 155 158 170 173 168 164 164 155 163 224 241 244 229 226 228 227 238 237 246 247 254 270 283 325 302 320 344 40 339 16 61 63 104 100 104 162 152 201 206
161 162 164 162 162 167 164 173 174 168 168 160 160 162 168 201 210 219 224 233 236 236 248 251 264 272 272 328 291 333 7 19 51 20 14 31 55 163 192 65 92 203 228
159 167 169 169 170 164 165 168 172 173 171 162 162 168 175 194 211 218 221 234 240 237 249 260 274 291 299 2 340 333 321 331 2 47 46 10 24 36 85 191 264 272 238
171 171 175 174 173 170 168 165 168 176 175 172 170 175 180 191 201 217 223 227 223 233 246 241 267 296 301 19 318 53 359 358 342 356 16 26 36 47 44 74 245 249 223
169 183 177 179 174 174 172 170 167 175 177 181 177 177 178 183 201 209 215 214 220 238 226 250 249 275 296 328 16 0 350 11 359 3 16 29 52 21 13 22 13 55 28
170 179 191 185 188 182 180 175 175 171 176 177 181 181 186 189 198 207 215 211 215 212 223 238 255 259 291 321 310 317 356 9 345 359 34 4 20 10 14 19 3 1 351
159 170 202 211 201 196 190 186 182 180 175 180 181 185 189 194 200 209 222 216 220 225 235 247 255 257 245 317 332 36 131 336 338 6 351 355 12 20 25 22 4 345 324
127 156 168 189 206 229 224 194 194 192 187 186 183 186 182 192 199 210 219 224 233 238 244 244 251 292 175 300 308 311 308 319 325 328 333 341 348 353 4 14 9 357 5
337 35 309 211 225 252 251 200 224 233 201 234 240 211 207 199 214 195 209 216 234 250 255 248 242 274 292 298 306 311 298 308 326 328 324 329 337 341 346 348 346 354 358
318 320 328 316 293 276 267 264 250 245 236 251 261 258 264 259 248 243 247 254 257 258 255 265 273 278 274 284 302 307 308 312 317 319 323 330 335 342 348 343 342 348 350
335 330 327 325 312 309 223 260 259 254 257 262 258 260 261 261 259 259 258 262 265 269 273 274 276 272 278 286 293 298 302 307 310 315 319 323 325 329 334 332 335 337 338
324 322 321 322 311 325 308 270 266 261 263 262 264 260 259 260 261 260 259 259 261 263 267 270 275 280 282 285 289 294 301 303 309 314 321 317 320 320 321 325 326 327 329
308 315 316 316 315 313 315 301 282 260 268 265 256 264 257 257 260 263 261 258 258 260 263 269 273 280 284 285 292 296 299 302 308 315 313 317 317 319 321 326 325 327 328
302 302 306 307 310 313 312 309 298 284 280 272 263 261 261 254 254 259 261 259 259 260 263 263 268 277 282 285 291 296 298 302 307 311 316 321 324 322 323 322 324 322 321
302 301 302 302 310 316 317 310 306 299 289 273 258 250 259 248 251 257 258 259 259 260 260 264 267 272 276 283 288 293 300 304 307 311 314 319 323 325 324 326 328 329 327
306 306 304 305 306 312 311 306 304 303 300 285 269 246 249 249 253 259 259 258 258 258 257 260 264 268 276 282 287 292 299 302 304 311 314 318 320 322 323 323 325 325 328
309 306 306 304 305 310 311 316 310 305 296 288 280 264 249 238 253 255 260 259 255 258 259 259 260 269 275 281 287 290 295 300 305 310 315 317 318 320 324 324 325 327 327
313 311 310 310 311 312 315 326 323 327 308 291 280 274 249 251 257 256 256 254 250 251 254 256 263 268 275 284 288 290 295 299 304 313 316 318 320 326 330 331 330 322 326
311 313 315 309 309 317 319 323 333 333 319 309 279 265 258 256 258 257 253 244 242 244 249 253 261 270 277 286 289 291 295 300 307 311 317 327 330 334 336 339 340 334 335
304 301 303 309 311 318 332 331 341 346 340 334 316 262 247 245 253 259 250 238 234 239 246 250 260 269 278 282 293 311 331 308 312 329 342 347 342 346 347 349 349 349 346
306 296 290 293 304 321 344 339 359 4 356 3 13 327 294 243 246 267 248 221 229 228 239 253 257 269 278 283 294 318 335 346 331 317 316 333 343 344 349 349 352 354 358
318 307 294 305 306 308 347 14 15 0 356 12 21 34 36 35 283 138 125 184 228 210 235 251 246 271 286 328 345 348 348 359 335 331 337 346 347 348 346 358 8 18 13
328 319 309 303 296 313 333 15 39 38 16 27 18 19 35 56 49 43 42 90 257 227 138 79 84 303 6 351 343 346 328 316 329 354 356 2 16 9 22 15 5 359 353
316 333 324 319 324 332 344 359 52 63 54 49 60 50 52 52 59 58 61 41 60 72 80 76 39 8 355 343 328 333 357 32 49 44 34 31 28 18 6 359 355 356 354